Location: Kerentrech
(47.7567°N, 3.3595°W)
Time: 20:18:46
(UTC+00:00)

STARLINK-1098 - Pass Details

Date: 17 February 2020
Orbit: 548 x 551 km, 53.0° (Epoch: 29 March)

Event Time Altitude Azimuth Distance (km) Brightness Sun altitude
Rises 06:45:10 0° 230° (SW) 2,738 6.8 -6.0°
Reaches altitude 10° 06:47:25 10° 227° (SW) 1,850 6.0 -5.7°
Maximum altitude 06:51:35 63° 146° (SE) 637 4.2 -5.0°
Drops below altitude 10° 06:55:48 10° 66° (ENE) 1,874 7.2 -4.3°
Sets 06:58:04 0° 63° (ENE) 2,778 8.1 -3.9°
